Location: Sternwarte Stuttgart
(48.7670°N, 9.1830°E)
Time: 02:33:38
(UTC+01:00)

FENGYUN 3A - Pass Details

Date: 24 January 2019
Orbit: 820 x 832 km, 98.4° (Epoch: 18 February)

Event Time Altitude Azimuth Distance (km) Brightness Sun altitude
Rises 07:08:11 0° 12° (NNE) 3,376 6.8 -9.2°
Reaches altitude 10° 07:10:33 10° 9° (N) 2,440 6.0 -8.8°
Maximum altitude 07:15:54 67° 288° (WNW) 901 3.6 -8.0°
Drops below altitude 10° 07:21:14 10° 208° (SSW) 2,431 6.0 -7.1°
Sets 07:23:36 0° 205° (SSW) 3,362 6.8 -6.8°
